K7MLX Weather Reports


time (UTC)temp
C
wind
direction
speed
KPH
gust
KPH
rain 1hr
cm
rain 24hr
cm
rain mn
cm
humidity
%
barometer
mb
20260505100043 11 211 4.8 16.1 0.00 0.00 0.00 82 1013.6
20260505094532 11 186 4.8 16.1 0.00 0.00 0.00 81 1013.5
20260505093040 11 171 4.8 17.7 0.00 0.00 0.00 81 1013.4
20260505091549 11 148 4.8 14.5 0.00 0.00 0.00 82 1013.3
20260505090053 11 165 3.2 12.9 0.00 0.00 0.00 82 1013.2
20260505084536 11 178 4.8 12.9 0.00 0.00 0.00 81 1013.2
20260505083046 11 181 4.8 12.9 0.00 0.00 0.00 81 1013.0
20260505081545 11 214 4.8 16.1 0.00 0.00 0.00 81 1013.0
20260505080049 11 188 4.8 14.5 0.00 0.00 0.00 81 1013.1
20260505074541 11 193 4.8 14.5 0.00 0.00 0.00 81 1013.0
20260505073047 11 190 4.8 16.1 0.00 0.00 0.00 80 1012.7
20260505071541 11 194 4.8 16.1 0.00 0.00 0.00 80 1012.6
20260505070037 12 169 4.8 14.5 0.00 0.00 0.00 80 1012.4
20260505064534 12 137 3.2 16.1 0.00 0.00 0.00 79 1012.2
20260505063046 12 146 4.8 19.3 0.00 0.00 0.00 79 1012.0
20260505061539 13 173 6.4 14.5 0.00 0.00 0.00 79 1011.7
20260505060035 13 166 3.2 14.5 0.00 0.00 0.00 78 1011.7
20260505054549 13 177 3.2 12.9 0.00 0.00 0.00 78 1011.6
20260505053041 13 194 4.8 16.1 0.00 0.00 0.00 78 1011.4
20260505051542 14 194 4.8 14.5 0.00 0.00 0.00 77 1011.4
20260505041545 16 167 1.6 11.3 0.00 0.00 0.00 74 1010.8
20260505040044 16 157 1.6 11.3 0.00 0.00 0.00 73 1010.6
20260505034538 17 163 1.6 11.3 0.00 0.00 0.00 71 1010.3
20260505033036 18 225 1.6 11.3 0.00 0.00 0.00 68 1010.2
20260505031540 18 262 3.2 19.3 0.00 0.00 0.00 66 1009.9
20260505030051 20 0 3.2 14.5 0.00 0.00 0.00 62 1009.9
20260505024537 21 180 3.2 16.1 0.00 0.00 0.00 58 1009.6
20260505023037 22 255 1.6 11.3 0.00 0.00 0.00 56 1009.6
20260505021549 23 184 1.6 8.0 0.00 0.00 0.00 52 1009.6
20260505020049 23 40 1.6 8.0 0.00 0.00 0.00 52 1009.5
20260505014536 25 264 3.2 9.7 0.00 0.00 0.00 49 1009.5
20260505013032 25 192 3.2 9.7 0.00 0.00 0.00 49 1009.5
20260505011534 25 237 1.6 12.9 0.00 0.00 0.00 48 1009.6
20260505004537 26 181 3.2 11.3 0.00 0.00 0.00 45 1009.6
20260505003045 26 207 3.2 11.3 0.00 0.00 0.00 43 1009.7
20260505001541 25 239 1.6 14.5 0.00 0.00 0.00 44 1009.7
20260505000039 25 186 4.8 12.9 0.00 0.00 0.00 44 1009.7
20260504234539 25 204 1.6 9.7 0.00 0.00 0.00 44 1009.8
20260504233045 25 146 6.4 12.9 0.00 0.00 0.00 42 1009.7
20260504231537 26 123 4.8 12.9 0.00 0.00 0.00 39 1009.7
20260504230043 26 139 3.2 9.7 0.00 0.00 0.00 42 1009.9
20260504224557 26 255 1.6 9.7 0.00 0.00 0.00 42 1010.2
20260504223041 26 128 3.2 12.9 0.00 0.00 0.00 42 1010.3
20260504221539 26 196 3.2 9.7 0.00 0.00 0.00 44 1010.5
20260504220038 25 242 4.8 14.5 0.00 0.00 0.00 44 1010.6
20260504214542 25 213 4.8 12.9 0.00 0.00 0.00 47 1010.7
20260504213041 24 178 3.2 9.7 0.00 0.00 0.00 49 1010.8
20260504211538 23 150 4.8 14.5 0.00 0.00 0.00 51 1011.0
20260504210050 24 165 3.2 14.5 0.00 0.00 0.00 52 1011.1
20260504204543 23 250 1.6 11.3 0.00 0.00 0.00 52 1011.1
20260504203045 23 183 1.6 9.7 0.00 0.00 0.00 54 1011.1
20260504201547 22 198 3.2 11.3 0.00 0.00 0.00 56 1011.2
20260504200050 22 174 3.2 12.9 0.00 0.00 0.00 55 1011.1
20260504194531 22 0 1.6 11.3 0.00 0.00 0.00 58 1011.1
20260504193039 21 222 1.6 11.3 0.00 0.00 0.00 58 1011.2
20260504191537 22 0 1.6 11.3 0.00 0.00 0.00 56 1011.3
20260504190032 21 252 1.6 9.7 0.00 0.00 0.00 57 1011.4
20260504184539 21 213 3.2 9.7 0.00 0.00 0.00 57 1011.5
20260504183036 20 146 3.2 8.0 0.00 0.00 0.00 56 1011.4
20260504181538 20 263 1.6 11.3 0.00 0.00 0.00 59 1011.5
20260504180037 19 188 1.6 11.3 0.00 0.00 0.00 59 1011.5
20260504174535 18 234 3.2 9.7 0.00 0.00 0.00 60 1011.5
20260504173034 18 252 3.2 8.0 0.00 0.00 0.00 60 1011.5
20260504171535 17 208 1.6 6.4 0.00 0.00 0.00 62 1011.4